Weather in Zutkuley

Russia / Zabaykalsky Krai     50°39′33″N   114°11′31″E
temp.,
°C
wind,
m/s
gust,
m/s
humid.,
%
clouds,
%
prec.,
mm/h
press.,
hPa
HPBL,
m
2 december, thu
thu200:00−5nw12207548 0.0 10061191
03:00−8nw1219585 0.3 10101047
06:00−10nw12186140 0.0 10121088
09:00−11nw11176611 0.0 1014973
12:00−10nw1015643 0.0 10161517
15:00−9nw813605 0.0 10171306
18:00−11nw713683 0.0 1018467
21:00−11wnw7157071 0.0 1019497
3 december, fri
fri300:00−10wnw71578100 0.0 1018620
03:00−9nw7157884 0.0 1017752
06:00−8nw8168240 0.0 1016630
09:00−8nw7148558 0.0 1018551
12:00−5nw7138097 0.0 1019921
15:00−4nw5107792 0.0 1018888
18:00−8w2391100 0.0 102040
21:00−8wsw229220 0.0 102014
4 december, sat
sat400:00−10w229270 0.0 102011
03:00−11w228914 0.0 102016
06:00−11w32822 0.0 101919
09:00−11w22791 0.0 101914
12:00−4wsw23585 0.0 101665
15:00−3sw22654 0.0 101428
18:00−8w22766 0.0 101510
21:00−8w22665 0.0 101410
5 december, sun
sun500:00−9wnw2269100 0.0 101413
03:00−4wnw81657100 0.0 1013378
06:00−3nw11226431 0.1 1014678
09:00−5nw1020640 0.1 1017664
12:00−4nw1017633 0.0 1019921
15:00−3nw915560 0.0 10201173
18:00−6wnw1017592 0.0 1023872
21:00−7wnw916655 0.0 1025849
6 december, mon
mon600:00−9wnw816695 0.0 1028723
03:00−9wnw714683 0.0 1029557
06:00−9wnw61368100 0.0 1028449
09:00−9w37775 0.0 1028124
12:00−5w613615 0.0 1026536
15:00−2wsw512557 0.0 1022504
18:00−8wsw34795 0.0 102445
21:00−9w32795 0.0 102323